Mobile Downtown, AL

6:44 AM CDT on September 20, 2017 (GMT -0500)
Mobile Downtown

Weather History for KBFM - March, 2012

Change the Weather History Date:

Saturday, March 31, 2012

  Actual Average Record
Temperature  
Mean Temperature 74 °F -  
Max Temperature 82 °F 70 °F 84 °F (2017)
Min Temperature 66 °F 52 °F 33 °F (2003)
Cooling Degree Days 9    
Growing Degree Days 24 (Base 50)    
Moisture  
Dew Point 67 °F    
Average Humidity 81    
Maximum Humidity 93    
Minimum Humidity 54    
Precipitation  
Precipitation 0.20 in - - ()
Sea Level Pressure  
Sea Level Pressure 29.92 in    
Wind  
Wind Speed 4 mph (WSW)    
Max Wind Speed 10 mph    
Max Gust Speed -    
Visibility 10 miles    
Events Rain , Thunderstorm    
Averages and records for this station are not official NWS values.
T = Trace of Precipitation, MM = Missing Value Source: NWS Daily Summary

Daily Weather History Graph

Daily Weather History Graph

Search for Another Location

Airport or City:

Trip Planner

Search our weather history database for the weather conditions in past years. The results will help you decide how hot, cold, wet, or windy it might be!

Date:

Astronomy

Mar. 31, 2012 Rise Set
Actual Time 6:41 AM CDT 7:11 PM CDT
Civil Twilight 6:17 AM CDT 7:35 PM CDT
Nautical Twilight 5:49 AM CDT 8:03 PM CDT
Astronomical Twilight 5:20 AM CDT 8:32 PM CDT
Moon 1:03 PM CDT (3/31) 2:12 AM CDT (3/31)
Length of Visible Light 13h 17m
Length of Day
12h 29m
First Quarter, 59% of the Moon is Illuminated
Mar 31
First Quarter
Apr 6
Full
Apr 13
Last Quarter
Apr 21
New
Apr 29
First Quarter

Hourly Weather History & Observations

Time (CDT) Temp. Heat Index Dew Point Humidity Pressure Visibility Wind Dir Wind Speed Gust Speed Precip Events Conditions
12:53 AM 72.0 °F - 68.0 °F 87% 29.92 in 10.0 mi Variable 3.5 mph - 0.02 in Rain Light Rain
1:42 AM 69.8 °F - 66.2 °F 88% 29.91 in 10.0 mi Calm Calm - 0.00 in Rain , Thunderstorm Light Thunderstorms and Rain
1:53 AM 70.0 °F - 66.9 °F 90% 29.91 in 10.0 mi Calm Calm - 0.01 in Rain , Thunderstorm Light Rain
2:06 AM 69.8 °F - 66.2 °F 88% 29.91 in 10.0 mi Calm Calm - 0.00 in Rain Light Rain
2:53 AM 70.0 °F - 66.0 °F 87% 29.92 in 10.0 mi WSW 5.8 mph - 0.00 in Rain Light Rain
3:53 AM 68.0 °F - 64.9 °F 90% 29.89 in 10.0 mi Calm Calm - 0.04 in   Overcast
4:53 AM 69.1 °F - 66.9 °F 93% 29.88 in 10.0 mi North 3.5 mph - N/A   Overcast
5:27 AM 69.8 °F - 66.2 °F 88% 29.90 in 9.0 mi WNW 4.6 mph - 0.00 in Rain Light Rain
5:53 AM 68.0 °F - 66.0 °F 93% 29.91 in 8.0 mi WNW 3.5 mph - 0.02 in Rain Light Rain
6:53 AM 66.9 °F - 64.9 °F 93% 29.94 in 10.0 mi West 5.8 mph - 0.01 in Rain Light Rain
7:53 AM 66.9 °F - 64.0 °F 90% 29.97 in 9.0 mi West 5.8 mph - 0.01 in Rain Light Rain
8:53 AM 66.0 °F - 64.0 °F 93% 29.96 in 4.0 mi WNW 3.5 mph - 0.09 in   Overcast
9:53 AM 69.1 °F - 64.9 °F 87% 29.98 in 10.0 mi SW 3.5 mph - N/A   Mostly Cloudy
10:53 AM 73.9 °F - 64.9 °F 73% 29.97 in 10.0 mi West 4.6 mph - N/A   Scattered Clouds
11:53 AM 79.0 °F - 66.0 °F 64% 29.95 in 10.0 mi Variable 3.5 mph - N/A   Mostly Cloudy
12:53 PM 80.1 °F 81.9 °F 64.9 °F 60% 29.93 in 10.0 mi WNW 9.2 mph - N/A   Mostly Cloudy
1:53 PM 82.0 °F 83.4 °F 64.0 °F 54% 29.92 in 10.0 mi NNE 3.5 mph - N/A   Mostly Cloudy
2:53 PM 80.1 °F 82.7 °F 68.0 °F 67% 29.90 in 10.0 mi SSE 10.4 mph - N/A   Mostly Cloudy
3:53 PM 79.0 °F - 68.0 °F 69% 29.88 in 10.0 mi South 8.1 mph - N/A   Scattered Clouds
4:53 PM 82.0 °F 84.5 °F 66.9 °F 60% 29.87 in 10.0 mi South 5.8 mph - N/A   Scattered Clouds
5:53 PM 80.1 °F 82.7 °F 68.0 °F 67% 29.88 in 10.0 mi South 6.9 mph - N/A   Scattered Clouds
6:53 PM 78.8 °F - 68.0 °F 69% 29.88 in 10.0 mi SW 6.9 mph - N/A   Clear
7:53 PM 75.0 °F - 68.0 °F 79% 29.89 in 10.0 mi SSW 3.5 mph - N/A   Clear
8:53 PM 73.9 °F - 69.1 °F 85% 29.91 in 10.0 mi Variable 4.6 mph - N/A   Clear
9:53 PM 73.0 °F - 69.1 °F 87% 29.93 in 10.0 mi WSW 4.6 mph - N/A   Clear
10:53 PM 72.0 °F - 69.1 °F 91% 29.94 in 10.0 mi SW 4.6 mph - N/A   Clear
11:53 PM 72.0 °F - 69.1 °F 91% 29.95 in 10.0 mi WSW 3.5 mph - N/A   Clear